IRNSS-1F (41384 NORAD) Tracking and Keplerian Element Data

This shows tracking and keplerian element data for the satellite.

Feedback or suggestion? Click here.




ElementValue
Catalog41384
NameIRNSS-1F
Epoch Orbit3266
Epoch Day34.69008991
Epoch Year2025
RAAN109.9976
Inclination4.1137
Eccentricity0.0027205
Argument of Perigee192.5664
Mean Anonmoly112.4574
Mean Motion1.00275294
Decay Rate1.61E-06
L11 41384U 16015A 25034.69008991 .00000161 00000+0 00000+0 0 9995
L22 41384 4.1137 109.9976 0027205 192.5664 112.4574 1.00275294 32669



Live tracking and technical data element details for IRNSS-1F (NORAD 41384). IRNSS-1F can be tracked NOW for your location showing map with azimuth and elevation plus other details from your city location.







IsCatalogInMostPopularTable: catalog: 41384, numindb: 551
Update: records affected: 1



GetName: 41384 IRNSS-1F

Hit Count: updated at: Thu, 15 May 2025 10:28:40 GMT